Regional Weather Roundup
Issued by NWS

Current Version | Previous Version | Text Only | Print | Product List | Glossary Off
Versions: 1 2 3 4 5 6 7 8 9 10 11 12 13 14 15 16 17 18 19 20 21 22 23 24 25 26 27

000
ASUS44 KJAN 171310
RWRMS

MISSISSIPPI HOURLY WEATHER ROUNDUP
NATIONAL WEATHER SERVICE JACKSON MS
800 AM CDT TUE OCT 17 2017

NOTE: "FAIR: INDICATES FEW OR NO CLOUDS BELOW 12,000 FEET WITH NO
SIGNIFICANT WEATHER AND/OR OBSTRUCTIONS TO VISIBILITY.

MSZ001>002-007>008-010>013-018>021-025>028-034>036-171400-
NORTHWEST MISSISSIPPI

CITY           SKY/WX    TMP DP  RH WIND       PRES   REMARKS
BATESVILLE     FAIR      39  38  97 CALM      30.34R
CLARKSDALE       N/A     45  45 100 N6        30.34R
CLEVELAND      FAIR      46  46  99 NW6       30.32R
GREENWOOD      CLEAR     42  41  96 N3        30.30S
GREENVILLE     CLEAR     46  41  82 N9        30.31R
OLIVE BRANCH   PTCLDY   N/A N/A N/A CALM      30.33R
OXFORD         FAIR      45  41  87 NE3       30.33R
TUNICA           N/A    N/A N/A N/A CALM      30.36R
WINONA         FAIR      47  44  89 NE6       30.30R
$$

MSZ003>006-009-014>017-022>024-029>033-037>039-171400-
NORTHEAST MISSISSIPPI

CITY           SKY/WX    TMP DP  RH WIND       PRES   REMARKS
COLUMBUS AFB   SUNNY     46  46  99 CALM      30.30R
CORINTH        FAIR      41  41 100 CALM      30.33R
GOLDN TRIANGLE SUNNY     47  45  93 N3        30.31R
STARKVILLE     FAIR      50  45  81 E7        30.31S
TUPELO         SUNNY     46  42  86 N6        30.32R
$$

MSZ040-058-171400-
CENTRAL MISSISSIPPI

CITY           SKY/WX    TMP DP  RH WIND       PRES   REMARKS
JACKSON INTL   SUNNY     51  45  79 NE9       30.26S
JACKSON HAWKNS SUNNY     50  46  86 E5        30.27R
MADISON        FAIR      45  43  93 CALM      30.27R
MERIDIAN KEY   SUNNY     53  47  79 NE9       30.28R
MERIDIAN NAS   SUNNY     52  46  80 NE5       30.28R
RAYMOND        FAIR      46  45  93 CALM      30.27R
VICKSBURG VKS  SUNNY     45  45 100 CALM      30.29S
$$

MSZ059>079-171400-
SOUTH MISSISSIPPI

CITY           SKY/WX    TMP DP  RH WIND       PRES   REMARKS
HATTIESBURG    CLOUDY    52  48  86 N3        30.24R
LAUREL         FAIR      52  47  84 NE6       30.25R
MCCOMB         SUNNY     51  44  77 N7        30.22S
NATCHEZ        CLEAR     47  45  93 N5        30.27R
PINE BELT      MOSUNNY   51  46  83 N7        30.24R
$$

MSZ080>082-171400-
COASTAL MISSISSIPPI

CITY           SKY/WX    TMP DP  RH WIND       PRES   REMARKS
BAY ST LOUIS   SUNNY     52  48  87 VRB5      30.19R
BILOXI         SUNNY     55  49  82 NE13      30.18R
PASCAGOULA     MOSUNNY   55  49  80 NE6       30.18R
GULFPORT       SUNNY     55  49  80 N8        30.18R
$$

LAZ007>009-015>016-023>026-171400-
NORTHEAST LOUISIANA

CITY           SKY/WX    TMP DP  RH WIND       PRES   REMARKS
BASTROP        FAIR      43  42  97 CALM      30.31R
TALLULAH/VBURG CLEAR     49  46  90 NE7       30.28S
VIDALIA          N/A    N/A N/A N/A MISG      30.26S
$$




USA.gov is the U.S. government's official web portal to all federal, state and local government web resources and services.